Location: Elma
(49.8670°N, 95.9170°W)
Time: 15:47:20
(UTC-05:00)

ISS - Pass Details

Date: 28 March 2019
Orbit: 408 x 410 km, 51.6° (Epoch: 22 April)

Event Time Altitude Azimuth Distance (km) Brightness Sun altitude
Rises 21:03:23 0° 268° (W) 2,336 1.4 -12.4°
Reaches altitude 10° 21:05:29 10° 271° (W) 1,475 0.2 -12.8°
Maximum altitude 21:08:46 64° 354° (N) 459 -3.5 -13.3°
Enters shadow 21:10:53 20° 73° (ENE) 1,015 -2.3 -13.6°
